Miscellaneous Local Product
Issued by NWS Hastings, NE

Home | Current Version | Previous Version | Graphics & Text | Print | Product List | Glossary Off
Versions: 1 2 3 4 5 6 7 8 9 10 11 12 13 14 15 16 17 18 19 20 21 22 23 24 25 26 27 28 29 30 31 32 33 34 35 36 37 38 39 40 41 42 43 44 45 46 47 48 49 50

000
AXUS43 KGID 242302
MISGRI

GID CWA HOURLY WEATHER ROUNDUP
NATIONAL WEATHER SERVICE HASTINGS NE
600 PM CDT WED MAY 24 2017

NOTE: "FAIR" INDICATES FEW OR NO CLOUDS BELOW 12,000 FEET WITH NO
SIGNIFICANT WEATHER AND/OR OBSTRUCTIONS TO VISIBILITY.

...SOUTH CENTRAL NEBRASKA...

CITY           SKY/WX    TMP DP  RH WIND       PRES   REMARKS
GRAND ISLAND   SUNNY     64  42  44 S8        29.69F
HASTINGS       SUNNY     65  41  41 SE6       29.69F
KEARNEY        SUNNY     66  39  37 S8        29.67F
ORD            SUNNY     66  40  38 S12       29.64F
YORK           SUNNY     64  41  42 CALM      29.69F
AURORA         MOSUNNY   66  40  38 SW6       29.68F
LEXINGTON      SUNNY     68  42  39 S10       29.64F
HOLDREGE       SUNNY     65  40  38 SE8G16    29.67F
HEBRON         SUNNY     66  42  40 CALM      29.69F

...NEBRASKA PANHANDLE...

CITY           SKY/WX    TMP DP  RH WIND       PRES   REMARKS
CHADRON        SUNNY     80  48  32 S18G26    29.40F
ALLIANCE       SUNNY     77  48  35 S16       29.49F
SCOTTSBLUFF    SUNNY     81  48  31 SE14      29.47F
SIDNEY         SUNNY     77  47  34 S13G24    29.54F

...WESTERN AND NORTH CENTRAL NEBRASKA...

CITY           SKY/WX    TMP DP  RH WIND       PRES   REMARKS
VALENTINE      SUNNY     73  34  23 SE17G26   29.55F
AINSWORTH      SUNNY     68  42  39 S13G18    29.60F
ONEILL         MOSUNNY   66  40  39 S9        29.65F
BROKEN BOW     SUNNY     66  40  38 S8        29.64F
IMPERIAL       SUNNY     74  44  34 SE21      29.57F
NORTH PLATTE   SUNNY     71  44  37 S10G18    29.60F
MCCOOK         SUNNY     73  43  33 S12       29.61F

...EASTERN NEBRASKA...

CITY           SKY/WX    TMP DP  RH WIND       PRES   REMARKS
NORFOLK        SUNNY     65  42  43 S7        29.67F
SO SIOUX CITY  SUNNY     66  44  45 E3        29.67F
TEKAMAH        SUNNY     64  40  41 CALM      29.68F
ALBION         MOSUNNY   68  40  36 S8        29.66F
OMAHA EPPLEY   PTSUNNY   66  44  45 N5        29.68F
OFFUTT AFB     CLOUDY    67  43  41 CALM      29.68S
MILLARD        PTSUNNY   66  44  44 NE3       29.69S
LINCOLN        MOSUNNY   66  42  41 CALM      29.70S
NEBRASKA CITY  PTSUNNY   66  37  33 N3        29.69S
BEATRICE       MOSUNNY   65  44  45 N5        29.69F
FALLS CITY     PTSUNNY   67  44  43 N7        29.67F

...NORTHERN KANSAS...

CITY           SKY/WX    TMP DP  RH WIND       PRES   REMARKS
GOODLAND       SUNNY     76  43  30 S15       29.61F
HILL CITY      SUNNY     71  40  32 S8        29.66F
NORTON         CLEAR     68  36  30 SE8       29.65F
PHILLIPSBURG   SUNNY     70  39  32 SE6       29.67F
SMITH CENTER   SUNNY     66  43  42 S8        29.69F
HAYS           SUNNY     69  42  37 S7        29.69F
RUSSELL        SUNNY     66  42  41 CALM      29.68F
CONCORDIA      CLOUDY    66  44  45 CALM      29.70F
SALINA         SUNNY     69  43  38 CALM      29.71F
TOPEKA         MOSUNNY   68  47  46 NW8       29.68S



USA.gov is the U.S. government's official web portal to all federal, state and local government web resources and services.